Погода в Полне

Россия / Псковская область     58°27′07″N   28°09′37″E
темп.,
°C
ветер,
м/с
пор.,
м/с
влажн.,
%
обл.,
%
осадки,
мм/ч
давл.,
гПа
погр.,
м
29 мая, вс
вс2900:00+6ююз2296100 0.0 100222
03:00+7юз249597 0.0 1003128
06:00+7зюз3109342 0.1 1003626
09:00+8зюз488997 0.4 1005558
12:00+8зюз2794100 0.6 1007324
15:00+13зюз245974 0.6 1008898
18:00+15зюз345175 0.2 10091448
21:00+10з117316 0.2 101110
30 мая, пн
пн3000:00+7ююз22821 0.0 101314
03:00+6юз11884 0.0 101410
06:00+8ююз11810 0.0 101544
09:00+15ююв11560 0.0 1015588
12:00+18юв234227 0.0 10151931
15:00+20ю233673 0.0 10142438
18:00+17юз1457100 0.0 1014874
21:00+13в2575100 0.0 1014124
31 мая, вт
вт3100:00+12вюв3985100 0.1 1013284
03:00+11вюв41285100 0.4 1012764
06:00+10вюв51196100 1.7 1011790
09:00+11ююв4109216 2.1 1010804
12:00+12ююв5982100 0.4 10111065
15:00+12ююв51083100 0.5 1012962
18:00+11ю4989100 0.3 1013799
21:00+10ю5988100 0.4 1013808
1 июня, ср
ср100:00+10ю5994100 0.2 1014782
03:00+9ююз51291100 0.3 1015748
06:00+9ю4119041 0.0 1016552
09:00+13ююз510625 0.0 10171070
12:00+18ююз584591 0.0 10172060
15:00+19ююз4639100 0.0 10162332
18:00+16ю3859100 0.0 1017634
21:00+14вюв2674100 0.0 1015137
2 июня, чт
чт200:00+13вюв2270100 0.0 101431
03:00+12вюв3986100 0.2 1012253
06:00+12юв51195100 1.9 1009688
09:00+14ююв488775 2.8 1008825
12:00+13ююз499469 1.5 1009703
15:00+15зюз4770100 2.3 10111127
18:00+13ююз5787100 1.1 1011616
21:00+10юз3896100 3.3 1011254